Tracking 31029 objects as of 16-Jul-2025
HD Live streaming from Space Station
objects crossing your sky now

MOLNIYA 1-75

Track MOLNIYA 1-75 now!
MOLNIYA 1-75 is classified as:


NORAD ID: 19807
Int'l Code: 1989-014A
Perigee: 2,498.7 km
Apogee: 37,941.0 km
Inclination: 63.8 °
Period: 719.2 minutes
Semi major axis: 26590 km
RCS: 12.6191 m2 (large)
Launch date: February 15, 1989
Source: Commonwealth of Independent States (former USSR) (CIS)
Launch site: TYURATAM MISSILE AND SPACE COMPLEX (TTMTR)
Your satellite tracking list
Your tracking list is empty




NASA's NSSDC Master Catalog

Two Line Element Set (TLE):
1 19807U 89014A   25194.01975132  .00000753  00000-0  00000-0 0  9991
2 19807  63.7530 173.2864 6664375 258.2021  25.4498  2.00218644266484
Source of the keplerian elements: AFSPC